[[{"header":{"parameterUnit":"m.s-1","parameterCategory":1,"la1":30.2991,"la2":30.254,"lo1":-89.0895,"lo2":-89.0444,"dy":0.0017,"dx":0.0017,"nx":28,"ny":28,"refTime":"2025-07-12T21:00:00:Z","depth":0,"parameterNumber":2,"parameterNumberName":"U-component_of_WINDS"},"data":[0,0,0,0,0,0,0,0,0,0,0,0,0,0,0,0,0,0,0,0,0,0,0,0,0,0,0,0,0,0,0,0,0,0,0,0,0,0,0,0,0,0,0,0,0,0,0,0,0,0,0,0,0,0,0,0,0,0,2.8469,2.847,0,2.8559,2.856,2.8561,2.8523,2.8521,2.8519,2.8517,2.8608,2.8612,2.8616,0,0,0,0,0,0,0,0,0,0,0,0,0,2.8263,2.8267,2.8469,2.847,2.8471,2.8559,2.856,2.8561,2.8524,2.8521,2.8519,2.8516,2.8606,2.8612,2.8617,0,0,0,0,0,0,0,0,0,0,0,0,0,2.8353,2.8268,2.8469,2.8463,2.8464,2.8558,2.856,2.8561,2.8524,2.8521,2.8518,2.8515,2.8605,2.8611,2.8618,2.8723,0,0,2.8638,2.8641,0,0,0,0,0,0,0,0,2.8348,2.836,2.8463,2.8464,2.8464,2.8527,2.852,2.8615,2.8525,2.8501,2.8517,2.8513,2.8583,2.8591,2.8615,2.8727,2.8731,2.8638,2.8642,2.8645,2.8647,0,0,0,0,0,0,0,2.8341,2.8356,2.8504,2.8464,2.8465,2.8455,2.8465,2.8538,2.8559,2.8503,2.8501,2.8512,2.8583,2.8609,2.8617,2.8732,2.8638,2.8644,2.8648,2.8651,2.893,2.8934,0,0,0,0,0,0,2.8335,2.8351,2.8502,2.8507,2.8397,2.8462,2.8472,2.851,2.8558,2.8563,2.8514,2.851,2.8599,2.8609,2.862,2.8743,2.8645,2.8651,2.8655,2.8927,2.8931,2.8935,0,0,0,0,0,0,2.8331,2.8349,2.8498,2.8429,2.8447,2.8469,2.8512,2.8513,2.8539,2.8567,2.857,2.8537,2.8597,2.8611,2.8697,2.8746,2.8654,2.866,2.8923,2.8928,2.8933,2.8992,0,0,0,0,0,0,2.8325,2.8348,2.8389,2.843,2.8451,2.8574,2.8515,2.8517,2.8551,2.8545,2.8589,2.8593,2.8596,2.8687,2.8703,2.8753,2.8666,2.8919,2.8925,2.8931,2.8986,2.8999,2.901,0,0,0,0,0,2.8318,2.8402,2.8391,2.8409,2.8502,2.8577,2.8589,2.859,2.8555,2.8595,2.8613,2.8592,2.8739,2.8696,2.8714,2.8767,2.8915,2.8923,2.8931,2.8981,2.8996,2.901,0,0,0,0,0,0,2.8367,2.8408,2.8396,2.8496,2.8533,2.8571,2.8622,2.8607,2.8655,2.8648,2.8648,2.8658,2.8746,2.8765,2.8717,2.8869,2.8821,2.8833,2.8853,2.8868,2.888,2.8872,2.8671,0,0,0,0,0,2.8389,2.8447,2.848,2.8565,2.8584,2.86,2.8633,2.863,2.8669,2.8684,2.8708,2.8746,2.88,2.8836,2.8887,2.8989,2.8996,2.9034,2.9046,2.9056,2.9065,2.9117,2.9133,2.8961,2.8961,2.896,0,0,2.8436,2.8466,2.8502,2.8575,2.8604,2.8662,2.8613,2.8678,2.8721,2.8694,2.8775,2.8794,2.8836,2.893,2.8972,2.8949,2.9115,2.9066,2.9074,2.9078,2.9127,2.9143,2.9158,2.8966,2.8965,2.8964,0,0,2.8551,2.8581,2.8653,2.8682,2.8726,2.8735,2.8753,2.8792,2.8803,2.8885,2.8865,2.8916,2.9011,2.904,2.9067,2.9191,2.9172,2.9208,2.927,2.932,2.9334,2.9346,2.9386,2.9401,2.9218,2.9218,2.9218,0,2.8603,2.8691,2.8692,2.8757,2.8789,2.8767,2.8839,2.8868,2.8926,2.8948,2.8921,2.9037,2.9064,2.9162,2.9192,2.9216,2.9234,2.9202,2.9332,2.9344,2.9355,2.9394,2.941,2.9222,2.9221,2.9221,2.9221,0,2.8752,2.8813,2.8866,2.8922,2.896,2.9029,2.9038,2.9076,2.9071,2.9083,2.9165,2.9196,2.9252,2.9276,2.9272,2.9373,2.9357,2.9332,2.9283,2.9375,2.9411,2.9427,2.9227,2.9226,2.9225,2.9224,0,0,2.8899,2.8953,2.8973,2.8996,2.9042,2.9089,2.9156,2.921,2.9241,2.9283,2.9336,2.9416,2.9392,2.9423,2.9422,2.9467,2.9558,2.9435,2.9436,2.9454,2.9668,2.9684,2.9701,2.9547,2.955,2.9552,2.9663,0,2.9014,2.9131,2.9133,2.924,2.9294,2.9274,2.9332,2.9365,2.9378,2.9425,2.9439,2.9494,2.946,2.9478,2.9522,2.9538,2.96,2.953,2.9595,2.9597,2.9582,2.9721,2.9739,2.9842,2.9677,2.968,2.9682,0,2.9165,2.9209,2.9321,2.9356,2.9379,2.9431,2.9479,2.9526,2.9563,2.9569,2.9603,2.9594,2.966,2.9611,2.97,2.9652,2.9679,2.9691,2.9695,2.9698,2.9643,2.9725,2.9875,2.9889,2.9705,2.9703,2.9701,0,2.9256,2.9345,2.9422,2.9443,2.9487,2.9524,2.9544,2.9577,2.9609,2.9652,2.9672,2.9722,2.9749,2.9787,2.9791,2.9756,2.988,2.9832,2.9884,2.9884,2.9909,2.9907,3.0063,2.9932,2.9932,2.9932,2.9931,0,2.9383,2.9452,2.9463,2.951,2.9586,2.9587,2.9661,2.9678,2.9708,2.9757,2.9743,2.9789,2.9794,2.9841,2.9845,2.9916,2.9929,2.9934,2.9934,2.9934,2.9932,2.9949,2.994,2.9936,2.9935,2.9934,2.9933,0,2.9497,2.9508,2.9591,2.9625,2.9635,2.9689,2.9718,2.9762,2.9773,2.9835,2.985,2.9867,2.9921,2.993,2.9994,2.9997,3.0081,3.0075,3.0068,3.0066,3.0117,3.011,3.0286,3.0307,3.0166,3.0167,3.0168,0,2.9576,2.9628,2.9667,2.9699,2.972,2.9772,2.9804,2.9807,2.984,2.9885,2.9923,2.9976,3.0018,3.0106,3.0124,3.0172,3.0165,3.0223,3.0172,3.0169,3.0161,3.0157,3.016,3.0232,3.0233,3.0235,3.0236,0,2.9713,2.9715,2.9762,2.981,2.9848,2.9886,2.9922,2.9949,2.9956,2.9994,3.0049,3.0082,3.0147,3.0199,3.0246,3.0265,3.0251,3.0252,3.0266,3.0264,3.0257,3.0258,3.0091,3.0247,3.0246,3.0245,3.0245,3.0244,2.981,2.9853,2.9887,2.9939,2.9966,2.9999,3.0041,3.0057,3.0103,3.0156,3.0155,3.0215,3.0248,3.031,3.0332,3.0378,3.0359,3.038,3.0385,3.0389,3.0392,3.0252,3.0387,3.0387,3.0387,3.0387,3.0386,0,2.9943,2.9963,3.0011,3.0061,3.0101,3.0085,3.0123,3.0157,3.0209,3.0242,3.0283,3.0345,3.0395,3.0416,3.0464,3.0496,3.0491,3.0508,3.0504,3.0508,3.0409,3.039,3.0512,3.0512,3.0512,3.0512,3.0512,3.0512,3.0017,3.0089,3.0095,3.0179,3.0199,3.0257,3.028,3.031,3.0335,3.0404,3.0445,3.0459,3.0486,3.0536,3.058,3.0585,3.0601,3.0622,3.0623,3.0529,3.0516,3.0504,3.0486,3.0626,3.0626,3.0719,3.0719,3.072]},{"header":{"parameterUnit":"m.s-1","parameterCategory":1,"la1":30.2991,"la2":30.254,"lo1":-89.0895,"lo2":-89.0444,"dy":0.0017,"dx":0.0017,"nx":28,"ny":28,"refTime":"2025-07-12T21:00:00:Z","depth":0,"parameterNumber":3,"parameterNumberName":"V-component_of_WINDS"},"data":[0,0,0,0,0,0,0,0,0,0,0,0,0,0,0,0,0,0,0,0,0,0,0,0,0,0,0,0,0,0,0,0,0,0,0,0,0,0,0,0,0,0,0,0,0,0,0,0,0,0,0,0,0,0,0,0,0,0,0.5705,0.5705,0,0.5695,0.5695,0.5695,0.5664,0.5664,0.5663,0.5662,0.5655,0.5656,0.5656,0,0,0,0,0,0,0,0,0,0,0,0,0,0.5699,0.5699,0.5705,0.5705,0.5705,0.5695,0.5695,0.5695,0.5664,0.5664,0.5663,0.5662,0.5655,0.5656,0.5656,0,0,0,0,0,0,0,0,0,0,0,0,0,0.5697,0.5699,0.5705,0.5688,0.5687,0.5695,0.5695,0.5695,0.5665,0.5663,0.5662,0.5661,0.5655,0.5656,0.5656,0.5681,0,0,0.5659,0.5659,0,0,0,0,0,0,0,0,0.5697,0.5697,0.5691,0.5689,0.5688,0.568,0.569,0.569,0.5665,0.5673,0.5662,0.5661,0.5665,0.5664,0.5665,0.5681,0.5681,0.5659,0.5659,0.5659,0.566,0,0,0,0,0,0,0,0.5697,0.5697,0.5701,0.5691,0.5689,0.5682,0.568,0.569,0.5675,0.5672,0.567,0.5669,0.5664,0.5664,0.5665,0.5681,0.5659,0.5659,0.566,0.566,0.5715,0.5716,0,0,0,0,0,0,0.5699,0.5698,0.5701,0.5701,0.569,0.5683,0.5681,0.5683,0.5675,0.5672,0.567,0.5668,0.5664,0.5664,0.5664,0.5692,0.5659,0.566,0.566,0.5714,0.5715,0.5716,0,0,0,0,0,0,0.5699,0.57,0.5702,0.5699,0.5698,0.5684,0.5687,0.5684,0.5684,0.5673,0.567,0.5673,0.5663,0.5663,0.5677,0.5691,0.566,0.5661,0.5713,0.5714,0.5716,0.5748,0,0,0,0,0,0,0.5699,0.57,0.5709,0.5699,0.5698,0.5714,0.5688,0.5684,0.5685,0.5682,0.5675,0.5673,0.5662,0.5676,0.5677,0.5691,0.5662,0.5711,0.5713,0.5715,0.5745,0.575,0.5754,0,0,0,0,0,0.5699,0.572,0.571,0.5711,0.5709,0.5715,0.5715,0.5701,0.5687,0.5696,0.5688,0.5674,0.5689,0.5677,0.5679,0.5694,0.571,0.5713,0.5715,0.5743,0.5749,0.5754,0,0,0,0,0,0,0.5734,0.5718,0.5707,0.5725,0.5721,0.571,0.5721,0.5707,0.5709,0.5706,0.5689,0.5688,0.5703,0.57,0.5687,0.5716,0.5697,0.57,0.5718,0.5724,0.5728,0.5729,0.5662,0,0,0,0,0,0.5743,0.5748,0.5735,0.5752,0.575,0.5736,0.5738,0.5727,0.5723,0.5722,0.5715,0.5713,0.5716,0.572,0.5723,0.5744,0.5742,0.5755,0.5759,0.5763,0.5766,0.5775,0.578,0.5724,0.5724,0.5724,0,0,0.5764,0.5756,0.576,0.5758,0.5754,0.576,0.5735,0.5743,0.5747,0.5723,0.5735,0.573,0.5726,0.5743,0.575,0.574,0.578,0.5766,0.5769,0.577,0.5778,0.5783,0.5788,0.5725,0.5725,0.5725,0,0,0.5804,0.5798,0.5811,0.5807,0.58,0.579,0.5793,0.5783,0.5778,0.5789,0.5771,0.5776,0.5783,0.5781,0.5781,0.5817,0.5803,0.5818,0.5842,0.5851,0.5856,0.586,0.5872,0.5877,0.5821,0.5821,0.5821,0,0.583,0.5837,0.582,0.5828,0.5827,0.5804,0.5816,0.5814,0.5809,0.5809,0.5798,0.5806,0.5802,0.5817,0.5825,0.5826,0.5829,0.5819,0.5856,0.586,0.5864,0.5875,0.588,0.5823,0.5823,0.5822,0.5822,0,0.587,0.5875,0.5886,0.588,0.5881,0.5891,0.5875,0.5878,0.5866,0.5857,0.5868,0.5862,0.5863,0.5866,0.5855,0.5879,0.5873,0.5859,0.584,0.5871,0.5881,0.5886,0.5825,0.5825,0.5824,0.5824,0,0,0.5933,0.5915,0.5919,0.5915,0.5905,0.5909,0.5918,0.5918,0.592,0.5917,0.5924,0.593,0.5917,0.5916,0.5905,0.5913,0.5941,0.5898,0.5898,0.5906,0.5966,0.5976,0.5981,0.5932,0.5932,0.5933,0.5966,0,0.597,0.5983,0.5967,0.5984,0.5988,0.5965,0.5973,0.5967,0.5959,0.5961,0.5952,0.5956,0.5939,0.5938,0.5945,0.5936,0.5953,0.5934,0.5938,0.5939,0.594,0.5987,0.5998,0.603,0.597,0.5971,0.5971,0,0.6016,0.6013,0.603,0.6017,0.6018,0.6025,0.6022,0.6025,0.6018,0.6011,0.6009,0.5995,0.6003,0.5983,0.5994,0.5981,0.5982,0.5977,0.5978,0.5978,0.5957,0.5988,0.604,0.6044,0.5978,0.5977,0.5977,0,0.6059,0.606,0.607,0.6067,0.6052,0.6058,0.6052,0.6044,0.6044,0.6041,0.6041,0.604,0.604,0.6039,0.6025,0.6012,0.6037,0.6016,0.6031,0.6032,0.6038,0.6038,0.609,0.6039,0.6039,0.6039,0.6038,0,0.6103,0.6114,0.6089,0.6095,0.6107,0.6087,0.6099,0.6091,0.6084,0.6088,0.6068,0.6073,0.6053,0.6056,0.6045,0.6054,0.6055,0.6049,0.6046,0.6051,0.6052,0.6052,0.6049,0.604,0.6039,0.6039,0.6039,0,0.6154,0.6137,0.6146,0.613,0.6127,0.6136,0.6123,0.6128,0.6117,0.6122,0.6123,0.6106,0.6108,0.6093,0.6092,0.6085,0.61,0.6093,0.6102,0.61,0.6115,0.6114,0.6169,0.6175,0.612,0.6121,0.6121,0,0.6183,0.619,0.6175,0.6175,0.617,0.6171,0.617,0.6151,0.6151,0.6142,0.6149,0.6148,0.6147,0.6151,0.6139,0.6138,0.6131,0.615,0.6131,0.6135,0.6131,0.613,0.6131,0.6155,0.6155,0.6156,0.6156,0,0.6235,0.6226,0.6225,0.622,0.6219,0.6215,0.621,0.6212,0.6191,0.6192,0.6192,0.6191,0.6189,0.6189,0.6185,0.6179,0.6164,0.6162,0.6166,0.6171,0.6175,0.6172,0.6113,0.6161,0.6161,0.6161,0.616,0.616,0.6276,0.6281,0.627,0.6269,0.6262,0.6257,0.6261,0.6249,0.6249,0.6245,0.6233,0.6236,0.6227,0.622,0.6216,0.6217,0.6208,0.6213,0.6214,0.6216,0.6218,0.6175,0.6217,0.6217,0.6216,0.6216,0.6216,0,0.6327,0.6318,0.6317,0.6309,0.6308,0.6292,0.6285,0.6285,0.6287,0.628,0.6278,0.6278,0.6277,0.6264,0.6262,0.6265,0.6258,0.6266,0.6265,0.6264,0.6227,0.6224,0.6271,0.6271,0.6271,0.6271,0.6271,0.6271,0.6353,0.6361,0.635,0.6354,0.6345,0.6346,0.6343,0.6338,0.6332,0.6332,0.633,0.6321,0.6312,0.6308,0.6306,0.6302,0.6303,0.6312,0.6306,0.6272,0.6267,0.6262,0.6259,0.6312,0.6312,0.6342,0.6343,0.6343]}]]